Regional Weather Roundup
Issued by NWS Newport/Morehead, NC

Current Version | Previous Version | Text Only | Print | Product List | Glossary On
Versions: 1 2 3 4 5 6 7 8 9 10 11 12 13 14 15 16 17 18 19 20 21 22 23 24 25 26 27 28 29 30 31 32 33 34 35 36 37 38 39 40 41 42 43 44 45 46 47 48 49 50
000 ASUS42 KMHX 280910 RWRMHX WEATHER ROUNDUP FOR EASTERN NORTH CAROLINA NATIONAL WEATHER SERVICE NEWPORT/MOREHEAD CITY NC 400 AM EST FRI NOV 28 2014 NOTE: "FAIR" INDICATES FEW OR NO CLOUDS BELOW 12,000 FEET WITH NO SIGNIFICANT WEATHER AND/OR OBSTRUCTIONS TO VISIBILITY NCZ015>017-031-032-045>047-102-103-281000- NORTH COAST CITY SKY/WX TMP DP RH WIND PRES REMARKS EDENTON CLOUDY 37 29 75 NW9 30.23S ELIZABETH CITY CLEAR 38 31 76 NW8 30.22R KITTY HAWK SUNNY 39 33 78 NW9 30.18R MANTEO CLEAR 40 32 75 NW10G23 30.20R $$ NCZ045>047-081-094-103-104-281000- CENTRAL COAST CITY SKY/WX TMP DP RH WIND PRES REMARKS FRISCO CLEAR 41 32 70 N9G22 30.19R SWANQUARTER N/A 37 N/A N/A NW12 30.18S $$ NCZ095-097-098-100-101-281000- SOUTHERN COAST CITY SKY/WX TMP DP RH WIND PRES REMARKS BEAUFORT CLEAR 38 28 67 N15 30.25R CEDAR ISLAND N/A 41 N/A N/A NW21G30 30.27R JACKSONVILLE MOCLDY 34 26 72 NW8 30.27R PINEY ISLAND PTSUNNY 42 28 57 NW17 30.22R WILMINGTON CLEAR 34 30 85 N5 30.27S $$ NCZ011>013-027>030-043-044-078>080-089-090>093-098-281000- COASTAL PLAIN CITY SKY/WX TMP DP RH WIND PRES REMARKS AHOSKIE CLEAR 32 25 75 CALM 30.26R CLINTON CLEAR 35 27 74 NW5 30.30S ELIZABETHTOWN CLEAR 33 28 79 NW5 30.30R GOLDSBORO CLEAR 33 30 86 NW8 30.27R GREENVILLE CLEAR 32 27 80 CALM 30.27S HAVELOCK CLEAR 37 25 61 NW15 30.25R KENANSVILLE CLEAR 33 28 82 NW6 30.29S KINSTON CLEAR 34 25 68 NW6 30.28R NEW BERN PTCLDY 36 26 67 NW7 30.26R RICHLANDS CLEAR 34 25 69 W3 30.28R ROCKY MOUNT CLEAR 33 23 66 W5 30.28R WASHINGTON MOCLDY 32 28 82 NW3 30.25S WHITEVILLE CLEAR 35 28 75 CALM 30.29S $$ AMZ130-135-150-152-154-156-158-170-250-252-270-ANZ085-086-088-633-658-670-281000- MARINE OBSERVATIONS STATION/POSITION TIME TEMP WIND PRES WAVE SWELL AIR SEA DIR/SP/G HT/PER HT/PER (UTC) (F) (DEG/KT/KT) (MB) (FT/S) (FT/S) CHESAPEAKE LIGHT 0800 42 330/ 25/ 28 1022.1 64 E VA BEACH 0900 46 65 330/ 21/ 25 1019.9 6/ 7 2/14 DUCK 0900 40 53 310/ 14/ 19 1021.5 2 E DUCK 0900 54 N/A 5/ 6 2/14 10 NE DUCK 0900 57 N/A 6/ 6 OREGON INLET 0900 41 54 320/ 16/ 20 1022.1 13E OREGON INLT 0900 60 N/A 7/ 6 2/11 HATTERAS CG 0900 44 56 340/ 21/ 26 1022.5 DIAMOND BUOY 0900 45 320/ 21/ 25 1021.4 6/ 7 3/ 8 17 S OCRACOKE NOT AVBL CAPE LOOKOUT 0800 40 340/ 16/ 21 1022.8 BEAUFORT LAB 0900 39 55 340/ 10/ 19 1022.8 30 SE NEW RIVER 0900 45 65 340/ 23/ 29 1023.8 6/ 5 2/ 9 5 SE WRIGHTSVLE 0800 39 58 350/ 16/ 19 1024.9 225 S CAPE HAT 0801 59 72 320/ 25/ 31 1018.8 11/ 9 2/15 41 SE CHARLESTON 0900 51 72 350/ 19/ 23 1024.0 6/ 5 2/10 $$

USA.gov is the U.S. government's official web portal to all federal, state and local government web resources and services.